Fort Bragg, NC

9:41 PM EST on January 22, 2018 (GMT -0500)
Simmons Army Air Field

Weather History for KFBG - October, 2012

Change the Weather History Date:

Sunday, October 7, 2012

  Actual Average Record
Temperature  
Mean Temperature 61 °F -  
Max Temperature 69 °F 73 °F 89 °F (1997)
Min Temperature 53 °F 55 °F 48 °F (2010)
Degree Days  
Heating Degree Days 4    
Growing Degree Days 11 (Base 50)    
Moisture  
Dew Point 53 °F    
Average Humidity 80    
Maximum Humidity 89    
Minimum Humidity 67    
Precipitation  
Precipitation 0.00 in - - ()
Sea Level Pressure  
Sea Level Pressure 30.03 in    
Wind  
Wind Speed 7 mph (North)    
Max Wind Speed 14 mph    
Max Gust Speed 20 mph    
Visibility 10 miles    
Events Rain    
Averages and records for this station are not official NWS values.
T = Trace of Precipitation, MM = Missing Value Source: NWS Daily Summary

Daily Weather History Graph

Daily Weather History Graph

Search for Another Location

Airport or City:

Trip Planner

Search our weather history database for the weather conditions in past years. The results will help you decide how hot, cold, wet, or windy it might be!

Date:

Astronomy

Oct. 07, 2012 Rise Set
Actual Time 7:15 AM EDT 6:50 PM EDT
Civil Twilight 6:50 AM EDT 7:16 PM EDT
Nautical Twilight 6:20 AM EDT 7:45 PM EDT
Astronomical Twilight 5:51 AM EDT 8:14 PM EDT
Moon No Moon Rise 1:42 PM EDT (10/7)
Length of Visible Light 12h 25m
Length of Day
11h 35m
Waning Gibbous, 56% of the Moon is Illuminated
Oct 7
Waning Gibbous
Oct 8
Last Quarter
Oct 15
New
Oct 21
First Quarter
Oct 29
Full

Hourly Weather History & Observations

Time (EDT) Temp. Dew Point Humidity Pressure Visibility Wind Dir Wind Speed Gust Speed Precip Events Conditions
12:55 AM 69.6 °F 61.7 °F 76% 29.96 in 10.0 mi North 4.6 mph - N/A   Partly Cloudy
1:55 AM 68.9 °F 61.5 °F 77% 29.97 in 10.0 mi NNW 8.1 mph - N/A   Mostly Cloudy
2:55 AM 67.5 °F 57.9 °F 71% 29.96 in 10.0 mi North 6.9 mph - N/A   Mostly Cloudy
3:32 AM 66.2 °F 57.2 °F 73% 29.96 in 10.0 mi North 6.9 mph - N/A   Mostly Cloudy
3:55 AM 65.3 °F 57.4 °F 76% 29.96 in 10.0 mi North 6.9 mph - N/A   Overcast
4:55 AM 63.0 °F 55.0 °F 75% 29.96 in 10.0 mi North 5.8 mph - N/A   Mostly Cloudy
5:25 AM 62.6 °F 55.4 °F 77% 29.97 in 10.0 mi North 6.9 mph - N/A   Scattered Clouds
5:55 AM 61.0 °F 54.9 °F 80% 29.97 in 10.0 mi North 4.6 mph - N/A   Partly Cloudy
5:59 AM 60.8 °F 55.4 °F 82% 29.97 in 10.0 mi North 3.5 mph - N/A   Mostly Cloudy
6:07 AM 60.8 °F 55.4 °F 82% 29.97 in 10.0 mi NNE 5.8 mph - N/A   Scattered Clouds
6:55 AM 60.8 °F 51.8 °F 72% 29.96 in 10.0 mi NE 5.8 mph - N/A   Partly Cloudy
7:55 AM 59.2 °F 49.8 °F 71% 29.98 in 10.0 mi NE 6.9 mph - N/A   Clear
8:55 AM 61.7 °F 50.5 °F 67% 30.02 in 10.0 mi NNE 5.8 mph - N/A   Clear
9:17 AM 60.8 °F 50.0 °F 68% 30.07 in 10.0 mi NNW 13.8 mph - N/A   Mostly Cloudy
9:55 AM 59.5 °F 50.7 °F 73% 30.06 in 10.0 mi North 11.5 mph - N/A   Overcast
10:21 AM 57.2 °F 53.6 °F 88% 30.05 in 10.0 mi NNE 10.4 mph - N/A   Overcast
10:55 AM 57.7 °F 52.2 °F 82% 30.04 in 10.0 mi NNE 6.9 mph - 0.00 in   Overcast
10:58 AM 59.0 °F 51.8 °F 77% 30.04 in 10.0 mi NNE 8.1 mph - N/A   Overcast
11:24 AM 59.0 °F 51.8 °F 77% 30.04 in 10.0 mi NNE 5.8 mph - N/A   Overcast
11:55 AM 60.1 °F 52.5 °F 76% 30.04 in 10.0 mi NNE 6.9 mph - N/A   Overcast
12:55 PM 61.3 °F 52.9 °F 74% 30.03 in 10.0 mi North 8.1 mph - N/A   Overcast
1:55 PM 61.3 °F 53.4 °F 75% 30.01 in 10.0 mi Variable 3.5 mph - N/A   Overcast
2:23 PM 60.8 °F 53.6 °F 77% 30.00 in 10.0 mi NNE 6.9 mph - N/A   Overcast
2:55 PM 61.0 °F 53.2 °F 76% 30.01 in 10.0 mi North 6.9 mph - N/A   Overcast
3:55 PM 60.3 °F 53.6 °F 79% 30.01 in 10.0 mi North 4.6 mph - N/A   Overcast
4:55 PM 60.3 °F 54.0 °F 80% 30.02 in 10.0 mi Variable 5.8 mph - N/A   Overcast
5:07 PM 60.8 °F 53.6 °F 77% 30.02 in 10.0 mi NNW 10.4 mph - N/A Rain Light Rain
5:17 PM 60.8 °F 53.6 °F 77% 30.03 in 10.0 mi NW 10.4 mph - N/A   Mostly Cloudy
5:26 PM 60.8 °F 53.6 °F 77% 30.02 in 10.0 mi NNW 9.2 mph - N/A   Scattered Clouds
5:37 PM 60.8 °F 53.6 °F 77% 30.03 in 10.0 mi North 10.4 mph - N/A   Mostly Cloudy
5:55 PM 60.3 °F 54.1 °F 80% 30.03 in 10.0 mi NNW 10.4 mph - 0.00 in   Mostly Cloudy
5:58 PM 60.8 °F 53.6 °F 77% 30.04 in 10.0 mi NNW 12.7 mph - N/A   Scattered Clouds
6:02 PM 59.0 °F 53.6 °F 82% 30.04 in 10.0 mi NNW 9.2 mph - N/A   Mostly Cloudy
6:55 PM 57.4 °F 53.2 °F 86% 30.07 in 10.0 mi NNW 11.5 mph - N/A   Overcast
7:06 PM 57.2 °F 53.6 °F 88% 30.08 in 10.0 mi NNW 10.4 mph - N/A   Overcast
7:55 PM 55.9 °F 52.9 °F 89% 30.09 in 10.0 mi North 12.7 mph 18.4 mph N/A   Overcast
8:22 PM 55.4 °F 51.8 °F 88% 30.09 in 10.0 mi North 12.7 mph 19.6 mph N/A   Overcast
8:31 PM 55.4 °F 51.8 °F 88% 30.10 in 10.0 mi North 11.5 mph 19.6 mph N/A   Overcast
8:55 PM 55.2 °F 51.6 °F 88% 30.11 in 10.0 mi North 11.5 mph - N/A   Overcast
8:57 PM 55.4 °F 51.8 °F 88% 30.11 in 10.0 mi North 11.5 mph - N/A   Overcast
9:12 PM 55.4 °F 51.8 °F 88% 30.12 in 10.0 mi North 8.1 mph 16.1 mph N/A   Overcast
9:55 PM 54.9 °F 51.1 °F 87% 30.13 in 10.0 mi NNE 8.1 mph - N/A   Overcast
10:55 PM 54.7 °F 50.7 °F 86% 30.13 in 10.0 mi NNE 6.9 mph - N/A   Mostly Cloudy
11:12 PM 53.6 °F 50.0 °F 88% 30.13 in 10.0 mi NNE 4.6 mph - N/A   Mostly Cloudy
11:55 PM 53.8 °F 50.4 °F 88% 30.13 in 10.0 mi NNE 5.8 mph - N/A   Partly Cloudy